Regional Weather Roundup
Issued by NWS

Home | Current Version | Previous Version | Text Only | Print | Product List | Glossary On
Versions: 1 2 3 4 5 6 7 8 9 10 11 12 13 14 15 16 17 18 19 20 21 22 23 24 25 26 27 28 29 30 31 32 33 34 35 36 37 38 39 40 41 42 43 44 45 46 47 48 49 50
000
ASUS43 KMKX 230821
RWRWI

WISCONSIN REGIONAL WEATHER ROUNDUP
NATIONAL WEATHER SERVICE MILWAUKEE/SULLIVAN WI
200 AM CST SUN NOV 23 2014

NOTE: "FAIR" INDICATES FEW OR NO CLOUDS BELOW 12,000 FEET WITH NO
SIGNIFICANT WEATHER AND/OR OBSTRUCTIONS TO VISIBILITY.

WIZ001-002-006>008-014>016-023>028-230900-
NORTHWEST WISCONSIN

CITY           SKY/WX    TMP DP  RH WIND       PRES   REMARKS
SUPERIOR ARPT  CLOUDY    35  35 100 NE7       29.49F FOG     WCI  29
ASHLAND        CLOUDY    35  33  92 NE5       29.52F WCI  31
HAYWARD        CLOUDY    38  37  97 S6        29.50F FOG     WCI  33
SIREN          FOG       40  39  98 S9        29.48S VSB 1   WCI  34
CUMBERLAND     FOG       36  34  93 SE10      29.50F VSB 1/4 WCI  28
RICE LAKE      FOG       37  36  98 SE10      29.53F VSB<1/4 WCI  29
CHETEK         FOG       38  38 100 SE7       29.52F VSB 1/4 WCI  32
LADYSMITH      FOG       41  40  98 SE9       29.55F VSB 1/2
EAU CLAIRE     FOG       40  39  97 S5        29.54F VSB 1/4
MENOMONIE      FOG       38  38  98 SE8       29.53F VSB<1/4 WCI  32
NEW RICHMOND   FOG       41  41 100 S9        29.48F VSB 1/4
OSCEOLA        FOG       40  40 100 S6        29.50F VSB 3/4
$$

WIZ003>005-009-010-017-018-230900-
NORTH CENTRAL WISCONSIN

CITY           SKY/WX    TMP DP  RH WIND       PRES   REMARKS
MANITOWISH WTR FOG       35  35 100 S8        29.58F VSB 1/2 WCI  28
ARBOR VITAE    FOG       37  36  96 SE6       29.59F VSB 1/2 WCI  32
WOODRUFF       FOG       37  36  96 SE6       29.59F VSB 1/2 WCI  32
RHINELANDER    FOG       37  37 100 SE5       29.60F VSB 1/4 WCI  33
EAGLE RIVER    FOG       36  36 100 SE3       29.60F VSB 1/2
LAND O LAKES   FOG       36  36 100 S6        29.61F VSB 1/2 WCI  32
PHILLIPS       FOG       38  38 100 SE7       29.56S VSB 1/2 WCI  33
TOMAHAWK       FOG       37  36  96 CALM      29.60F VSB 3/4
MEDFORD        FOG       38  38  99 SE9       29.58F VSB 1/4 WCI  31
MERRILL        FOG       37  37 100 SE3       29.61F VSB 1/4
$$

WIZ029-030-035-036-043>047-230900-
CENTRAL WISCONSIN

CITY           SKY/WX    TMP DP  RH WIND       PRES   REMARKS
WAUSAU         FOG       39  39 100 CALM      29.61F VSB 1/4
MOSINEE        FOG       41  41 100 SE7       29.63S VSB<1/4
MARSHFIELD     FOG       42  41  96 S6        29.60F VSB 1/4
STEVENS POINT  DRZL/FOG  42  42 100 S6        29.63F VSB 1/4
WAUPACA        FOG       42  40  95 SE5       29.66F VSB 1/4
WAUTOMA        CLOUDY    48  48 100 SE7       29.66F FOG
WISC RAPIDS    CLOUDY    47  46  97 S7        29.63F FOG
CAMP DOUGLAS   MOCLDY    52  52 100 S10       29.61F
$$

WIZ011>013-019>022-031-037>040-048>050-230900-
NORTHEAST WISCONSIN

CITY           SKY/WX    TMP DP  RH WIND       PRES   REMARKS
ANTIGO         FOG       35  35 100 S8        29.64S VSB 1/4 WCI  28
SHAWANO        FOG       37  36  94 CALM      29.67F VSB<1/4
OCONTO         CLOUDY    38  38 100 S5        29.69F VSB 1/4 WCI  34
STURGEON BAY   CLOUDY    43  43 100 S9        29.71F VSB 3/4
GREEN BAY      CLOUDY    48  46  93 S8        29.69F FOG
MANITOWOC      CLOUDY    44  43  96 S12       29.73S FOG
APPLETON       CLOUDY    45  45 100 SE8       29.68F FOG
CLINTONVILLE   FOG       37  37 100 SE5       29.66F VSB 1/4 WCI  34
OSHKOSH        CLOUDY    48  45  89 S14       29.69S
$$

WIZ032>034-041-042-053>061-230900-
SOUTHWEST WISCONSIN

CITY           SKY/WX    TMP DP  RH WIND       PRES   REMARKS
LA CROSSE      CLOUDY    52  48  86 S13G23    29.59F
SPARTA         CLOUDY    52  49  87 S9        29.61F
VIROQUA        CLOUDY    50  50 100 S14G22    29.63R
BOSCOBEL       CLOUDY    53  48  83 S13G20    29.67S
PRAIRIE DU CHI CLOUDY    52  48  84 S9        29.65S
PLATTEVILLE    CLOUDY    48  47  97 S15       29.69F
$$

WIZ056-057-062-063-064-067-068-230900-
SOUTH CENTRAL WISCONSIN

CITY           SKY/WX    TMP DP  RH WIND       PRES   REMARKS
REEDSBURG      CLOUDY    50  48  92 S13       29.65F
BARABOO/DELLS  CLOUDY    50  47  88 S16       29.66F
LONE ROCK      CLOUDY    55  47  74 S7        29.69S
MINERAL POINT  LGT RAIN  50  46  87 S13       29.69F
MADISON        CLOUDY    49  46  90 S10       29.71F
MIDDLETON      CLOUDY    50  48  94 S18       29.71S
WATERTOWN      CLOUDY    47  47 100 S10       29.72F
MONROE         FOG       46  46 100 S22G28    29.71F VSB 1
JANESVILLE     CLOUDY    50  46  87 S12       29.75S FOG
$$

WIZ051-052-058>065-066-070>072-230900-
SOUTHEAST WISCONSIN

CITY           SKY/WX    TMP DP  RH WIND       PRES   REMARKS
MILWAUKEE      PTCLDY    49  45  86 S12       29.76F
WAUKESHA       CLOUDY    46  45  93 S8        29.76S
MILWAUKEE/TIMM MOCLDY    48  45  87 SW15      29.75F
RACINE         MOCLDY    50  46  86 S9        29.78F
BURLINGTON     CLOUDY    47  46  95 S12G18    29.76F
KENOSHA        CLOUDY    50  47  89 S10       29.77F
FOND DU LAC    CLOUDY    49  45  86 S12       29.70F
SHEBOYGAN      CLOUDY    45  43  93 S9        29.73F FOG
WEST BEND      CLOUDY    50  45  81 S13       29.72F
JUNEAU         CLOUDY    47  45  95 S14       29.72F
$$

LSZ147-162-230900-
LAKE SUPERIOR

STATION/POSITION TIME  TEMP    WIND        PRES    WAVE
                       AIR SEA DIR/SP/G            HT/PER
                 (UTC) (F)     (DEG/KT/KT) (MB)    (FT/S)
DEVILS ISLAND    0800   38     110/ 11/ 13 1000.7F
PORT WING        0700   36      60/  4/  5 1000.3F
SAXON HARBOR     0700   38      CALM  /  8 1001.0F
$$

LMZ867-665-643>646-230900-
LAKE MICHIGAN

STATION/POSITION TIME  TEMP    WIND        PRES    WAVE
                       AIR SEA DIR/SP/G            HT/PER
                 (UTC) (F)     (DEG/KT/KT) (MB)    (FT/S)
CHAMBERS ISLAND  0700   41     130/  2/  4 1006.8F
N MID LAKE BUOY  0750   42 42  160/  8/ 10 1007.5F   3/ 7
NORTHPORT PIER   0801   39     150/  7/  9 1006.4F
SISTER BAY       0643             CALM       N/A
ALGOMA LAKESHORE 0658          210/  6/  6   N/A
KEWAUNEE LAKESHO 0800   40     180/  8/  9 1005.7F
SHEBOYGAN LAKESH 0800   46 37  180/ 14/ 15 1007.5R
PORT WASHINGTON  0700   41     200/  1/  3 1008.5
ATWATER BUOY     0800   49      CALM  /  2 1009.1F
MILWAUKEE LAKESH 0800   49     210/ 11/ 13   N/A
S MID LAKE BUOY  0750   46 43  180/ 17/ 19 1009.8F   3/ 4
KENOSHA   LAKESH 0800   47     170/ 13/ 14 1008.5F
$$

TC  - TEMPERATURE IN CELSIUS
VSB - VISIBILITY IN STATUTE MILES
WCI - WIND CHILL INDEX
HX  - HEAT INDEX



USA.gov is the U.S. government's official web portal to all federal, state and local government web resources and services.